30-01-2022, 00:00:04,    289,    0.0,    3.3,   0.00,   0.00, 1027.3,   71.6, -999.0
30-01-2022, 00:00:13,    289,    0.0,    3.3,   0.00,   0.00, 1027.3,   71.6, -999.0
30-01-2022, 00:00:23,    288,    0.0,    3.3,   0.00,   0.00, 1027.3,   71.5, -999.0
30-01-2022, 00:00:34,    254,    0.4,    3.3,   0.00,   0.00, 1027.3,   71.9, -999.0
30-01-2022, 00:00:43,    234,    1.9,    3.4,   0.00,   0.00, 1027.4,   72.3, -999.0
30-01-2022, 00:00:53,    234,    0.7,    3.4,   0.00,   0.00, 1027.4,   72.3, -999.0
30-01-2022, 00:01:03,    236,    0.1,    3.4,   0.00,   0.00, 1027.3,   72.2, -999.0
30-01-2022, 00:01:13,    237,    0.1,    3.3,   0.00,   0.00, 1027.3,   72.4, -999.0
30-01-2022, 00:01:23,    238,    0.0,    3.3,   0.00,   0.00, 1027.2,   72.2, -999.0
30-01-2022, 00:01:33,    239,    0.0,    3.3,   0.00,   0.00, 1027.2,   72.2, -999.0
30-01-2022, 00:01:43,    249,    0.8,    3.3,   0.00,   0.00, 1027.4,   72.5, -999.0
30-01-2022, 00:01:53,    250,    0.7,    3.3,   0.00,   0.00, 1027.4,   72.5, -999.0
30-01-2022, 00:02:03,    249,    0.9,    3.4,   0.00,   0.00, 1027.4,   72.6, -999.0
30-01-2022, 00:02:13,    253,    0.8,    3.4,   0.00,   0.00, 1027.4,   72.6, -999.0
30-01-2022, 00:02:22,    254,    0.5,    3.3,   0.00,   0.00, 1027.4,   72.5, -999.0
30-01-2022, 00:02:33,    246,    1.0,    3.3,   0.00,   0.00, 1027.4,   72.6, -999.0
30-01-2022, 00:02:43,    262,    0.4,    3.4,   0.00,   0.00, 1027.4,   72.6, -999.0
30-01-2022, 00:02:52,    264,    0.3,    3.3,   0.00,   0.00, 1027.3,   72.6, -999.0
30-01-2022, 00:03:03,    263,    0.0,    3.2,   0.00,   0.00, 1027.2,   72.4, -999.0
30-01-2022, 00:03:13,    263,    0.0,    3.1,   0.00,   0.00, 1027.2,   72.3, -999.0
30-01-2022, 00:03:22,    263,    0.0,    3.1,   0.00,   0.00, 1027.2,   72.5, -999.0
30-01-2022, 00:03:32,    264,    0.1,    3.3,   0.00,   0.00, 1027.3,   72.6, -999.0
30-01-2022, 00:03:43,    263,    0.0,    3.2,   0.00,   0.00, 1027.3,   72.5, -999.0
30-01-2022, 00:03:52,    263,    0.0,    3.2,   0.00,   0.00, 1027.3,   72.6, -999.0
30-01-2022, 00:04:02,    256,    0.4,    3.2,   0.00,   0.00, 1027.4,   72.7, -999.0
30-01-2022, 00:04:12,    272,    0.7,    3.2,   0.00,   0.00, 1027.5,   72.8, -999.0
30-01-2022, 00:04:22,    272,    0.0,    3.2,   0.00,   0.00, 1027.4,   72.6, -999.0
30-01-2022, 00:04:32,    272,    0.0,    3.1,   0.00,   0.00, 1027.3,   72.7, -999.0
30-01-2022, 00:04:42,    271,    0.0,    3.1,   0.00,   0.00, 1027.3,   72.6, -999.0
30-01-2022, 00:04:52,    271,    0.1,    3.1,   0.00,   0.00, 1027.4,   72.8, -999.0
30-01-2022, 00:05:02,    271,    0.0,    3.1,   0.00,   0.00, 1027.4,   72.8, -999.0
30-01-2022, 00:05:12,    271,    0.0,    3.0,   0.00,   0.00, 1027.4,   72.7, -999.0
30-01-2022, 00:05:22,    271,    0.0,    3.1,   0.00,   0.00, 1027.4,   72.9, -999.0
30-01-2022, 00:05:32,    272,    0.0,    3.1,   0.00,   0.00, 1027.5,   72.8, -999.0
30-01-2022, 00:05:42,    272,    0.0,    3.1,   0.00,   0.00, 1027.5,   72.9, -999.0
30-01-2022, 00:05:52,    272,    0.0,    3.0,   0.00,   0.00, 1027.5,   73.1, -999.0
30-01-2022, 00:06:01,    271,    0.0,    3.0,   0.00,   0.00, 1027.6,   73.0, -999.0
30-01-2022, 00:06:12,    271,    0.0,    3.1,   0.00,   0.00, 1027.5,   72.8, -999.0
30-01-2022, 00:06:22,    271,    0.0,    3.1,   0.00,   0.00, 1027.6,   73.0, -999.0
30-01-2022, 00:06:31,    271,    0.0,    3.0,   0.00,   0.00, 1027.6,   72.9, -999.0
30-01-2022, 00:06:41,    271,    0.0,    2.9,   0.00,   0.00, 1027.6,   73.0, -999.0
30-01-2022, 00:06:52,    271,    0.0,    2.9,   0.00,   0.00, 1027.6,   73.0, -999.0
30-01-2022, 00:07:01,    271,    0.0,    3.0,   0.00,   0.00, 1027.6,   73.0, -999.0
30-01-2022, 00:07:11,    272,    0.0,    2.9,   0.00,   0.00, 1027.6,   73.0, -999.0
30-01-2022, 00:07:21,    272,    0.0,    3.0,   0.00,   0.00, 1027.6,   73.1, -999.0
30-01-2022, 00:07:31,    271,    0.0,    3.1,   0.00,   0.00, 1027.6,   73.4, -999.0
30-01-2022, 00:07:41,    271,    0.0,    3.0,   0.00,   0.00, 1027.6,   73.5, -999.0
30-01-2022, 00:07:51,    271,    0.0,    3.0,   0.00,   0.00, 1027.6,   73.5, -999.0
30-01-2022, 00:08:01,    271,    0.0,    3.1,   0.00,   0.00, 1027.6,   73.6, -999.0
30-01-2022, 00:08:11,    271,    0.0,    3.0,   0.00,   0.00, 1027.7,   73.5, -999.0
30-01-2022, 00:08:21,    271,    0.0,    3.1,   0.00,   0.00, 1027.7,   73.4, -999.0
30-01-2022, 00:08:31,    271,    0.0,    3.0,   0.00,   0.00, 1027.7,   73.5, -999.0
30-01-2022, 00:08:41,    271,    0.0,    3.1,   0.00,   0.00, 1027.6,   73.3, -999.0
30-01-2022, 00:08:51,    271,    0.0,    3.1,   0.00,   0.00, 1027.7,   73.3, -999.0
30-01-2022, 00:09:01,    271,    0.0,    3.0,   0.00,   0.00, 1027.7,   73.3, -999.0
30-01-2022, 00:09:10,    271,    0.0,    3.0,   0.00,   0.00, 1027.7,   73.3, -999.0
30-01-2022, 00:09:21,    271,    0.0,    3.0,   0.00,   0.00, 1027.6,   73.3, -999.0
30-01-2022, 00:09:31,    271,    0.0,    3.0,   0.00,   0.00, 1027.6,   73.3, -999.0
30-01-2022, 00:09:40,    271,    0.0,    3.0,   0.00,   0.00, 1027.6,   73.2, -999.0
30-01-2022, 00:09:51,    271,    0.0,    2.9,   0.00,   0.00, 1027.6,   73.3, -999.0
30-01-2022, 00:10:01,    271,    0.0,    2.9,   0.00,   0.00, 1027.7,   73.2, -999.0
30-01-2022, 00:10:10,    271,    0.0,    3.0,   0.00,   0.00, 1027.6,   73.2, -999.0
30-01-2022, 00:10:20,    271,    0.0,    3.0,   0.00,   0.00, 1027.6,   73.3, -999.0
30-01-2022, 00:10:31,    271,    0.0,    3.0,   0.00,   0.00, 1027.6,   73.4, -999.0
30-01-2022, 00:10:40,    271,    0.0,    3.0,   0.00,   0.00, 1027.6,   73.5, -999.0
30-01-2022, 00:10:50,    271,    0.0,    3.1,   0.00,   0.00, 1027.6,   73.5, -999.0
30-01-2022, 00:11:00,    272,    0.0,    3.0,   0.00,   0.00, 1027.6,   73.6, -999.0
30-01-2022, 00:11:10,    271,    0.0,    3.1,   0.00,   0.00, 1027.6,   73.6, -999.0
30-01-2022, 00:11:20,    271,    0.0,    3.0,   0.00,   0.00, 1027.6,   73.7, -999.0
30-01-2022, 00:11:30,    272,    0.0,    3.0,   0.00,   0.00, 1027.6,   73.6, -999.0
30-01-2022, 00:11:40,    272,    0.2,    3.2,   0.00,   0.00, 1027.7,   74.0, -999.0
30-01-2022, 00:11:50,    271,    0.2,    3.2,   0.00,   0.00, 1027.7,   74.1, -999.0
30-01-2022, 00:12:00,    271,    0.0,    3.0,   0.00,   0.00, 1027.6,   73.6, -999.0
30-01-2022, 00:12:10,    271,    0.0,    3.0,   0.00,   0.00, 1027.6,   73.6, -999.0
30-01-2022, 00:12:20,    270,    0.0,    3.1,   0.00,   0.00, 1027.6,   73.7, -999.0
30-01-2022, 00:12:30,    270,    0.0,    3.0,   0.00,   0.00, 1027.5,   73.6, -999.0
30-01-2022, 00:12:40,    271,    0.0,    3.1,   0.00,   0.00, 1027.5,   73.7, -999.0
30-01-2022, 00:12:49,    271,    0.0,    3.1,   0.00,   0.00, 1027.5,   73.8, -999.0
30-01-2022, 00:13:00,    271,    0.0,    3.1,   0.00,   0.00, 1027.5,   73.8, -999.0
30-01-2022, 00:13:10,    271,    0.0,    3.2,   0.00,   0.00, 1027.6,   74.0, -999.0
30-01-2022, 00:13:19,    270,    0.0,    3.2,   0.00,   0.00, 1027.6,   74.0, -999.0
30-01-2022, 00:13:29,    270,    0.2,    3.2,   0.00,   0.00, 1027.6,   74.3, -999.0
30-01-2022, 00:13:40,    270,    0.0,    3.2,   0.00,   0.00, 1027.5,   73.9, -999.0
30-01-2022, 00:13:49,    269,    0.4,    3.2,   0.00,   0.00, 1027.6,   74.3, -999.0
30-01-2022, 00:13:59,    269,    0.1,    3.2,   0.00,   0.00, 1027.5,   74.2, -999.0
30-01-2022, 00:14:09,    268,    0.0,    3.1,   0.00,   0.00, 1027.5,   74.0, -999.0
30-01-2022, 00:14:19,    268,    0.0,    3.1,   0.00,   0.00, 1027.5,   73.9, -999.0
30-01-2022, 00:14:29,    268,    0.2,    3.1,   0.00,   0.00, 1027.6,   74.1, -999.0
30-01-2022, 00:14:39,    268,    0.0,    3.1,   0.00,   0.00, 1027.5,   73.9, -999.0
30-01-2022, 00:14:49,    269,    0.0,    3.1,   0.00,   0.00, 1027.5,   74.1, -999.0
30-01-2022, 00:14:59,    268,    0.0,    3.1,   0.00,   0.00, 1027.5,   74.0, -999.0
30-01-2022, 00:15:09,    268,    0.0,    3.0,   0.00,   0.00, 1027.4,   74.0, -999.0
30-01-2022, 00:15:19,    268,    0.0,    3.0,   0.00,   0.00, 1027.4,   73.9, -999.0
30-01-2022, 00:15:29,    268,    0.0,    3.1,   0.00,   0.00, 1027.4,   73.9, -999.0
30-01-2022, 00:15:39,    268,    0.0,    3.1,   0.00,   0.00, 1027.5,   74.0, -999.0
30-01-2022, 00:15:49,    268,    0.0,    3.0,   0.00,   0.00, 1027.5,   73.9, -999.0
30-01-2022, 00:15:58,    268,    0.0,    3.0,   0.00,   0.00, 1027.5,   74.0, -999.0
30-01-2022, 00:16:09,    268,    0.0,    3.0,   0.00,   0.00, 1027.4,   74.1, -999.0
30-01-2022, 00:16:19,    268,    0.0,    3.0,   0.00,   0.00, 1027.4,   74.0, -999.0
30-01-2022, 00:16:28,    268,    0.0,    3.0,   0.00,   0.00, 1027.5,   74.2, -999.0
30-01-2022, 00:16:38,    268,    0.0,    3.0,   0.00,   0.00, 1027.5,   74.2, -999.0
30-01-2022, 00:16:49,    268,    0.0,    3.0,   0.00,   0.00, 1027.5,   74.1, -999.0
30-01-2022, 00:16:58,    268,    0.0,    2.9,   0.00,   0.00, 1027.5,   74.2, -999.0
30-01-2022, 00:17:08,    268,    0.0,    3.0,   0.00,   0.00, 1027.5,   74.1, -999.0
30-01-2022, 00:17:19,    268,    0.0,    3.0,   0.00,   0.00, 1027.5,   74.2, -999.0
30-01-2022, 00:17:28,    268,    0.0,    2.9,   0.00,   0.00, 1027.5,   74.2, -999.0
30-01-2022, 00:17:38,    269,    0.0,    3.0,   0.00,   0.00, 1027.5,   74.2, -999.0
30-01-2022, 00:17:48,    268,    0.0,    3.0,   0.00,   0.00, 1027.5,   74.3, -999.0
30-01-2022, 00:17:58,    268,    0.0,    3.0,   0.00,   0.00, 1027.6,   74.3, -999.0
30-01-2022, 00:18:08,    268,    0.0,    3.0,   0.00,   0.00, 1027.6,   74.3, -999.0
30-01-2022, 00:18:18,    268,    0.0,    3.0,   0.00,   0.00, 1027.6,   74.3, -999.0
30-01-2022, 00:18:28,    268,    0.0,    3.0,   0.00,   0.00, 1027.6,   74.3, -999.0
30-01-2022, 00:18:38,    268,    0.0,    3.0,   0.00,   0.00, 1027.6,   74.4, -999.0
30-01-2022, 00:18:48,    268,    0.0,    2.9,   0.00,   0.00, 1027.6,   74.3, -999.0
30-01-2022, 00:18:58,    268,    0.0,    3.0,   0.00,   0.00, 1027.6,   74.3, -999.0
30-01-2022, 00:19:07,    268,    0.0,    3.0,   0.00,   0.00, 1027.6,   74.3, -999.0
30-01-2022, 00:19:18,    268,    0.0,    2.9,   0.00,   0.00, 1027.6,   74.4, -999.0
30-01-2022, 00:19:28,    268,    0.0,    2.9,   0.00,   0.00, 1027.6,   74.4, -999.0
30-01-2022, 00:19:37,    268,    0.0,    3.0,   0.00,   0.00, 1027.6,   74.5, -999.0
30-01-2022, 00:19:48,    268,    0.0,    3.0,   0.00,   0.00, 1027.6,   74.5, -999.0
30-01-2022, 00:19:58,    268,    0.0,    3.0,   0.00,   0.00, 1027.6,   74.6, -999.0
30-01-2022, 00:20:07,    268,    0.0,    2.9,   0.00,   0.00, 1027.6,   74.5, -999.0
30-01-2022, 00:20:17,    268,    0.0,    2.9,   0.00,   0.00, 1027.6,   74.4, -999.0
30-01-2022, 00:20:28,    268,    0.0,    2.9,   0.00,   0.00, 1027.6,   74.6, -999.0
30-01-2022, 00:20:37,    268,    0.0,    2.9,   0.00,   0.00, 1027.6,   74.5, -999.0
30-01-2022, 00:20:47,    268,    0.0,    2.9,   0.00,   0.00, 1027.6,   74.5, -999.0
30-01-2022, 00:20:57,    268,    0.0,    2.9,   0.00,   0.00, 1027.6,   74.6, -999.0
30-01-2022, 00:21:07,    268,    0.0,    3.0,   0.00,   0.00, 1027.6,   74.6, -999.0
30-01-2022, 00:21:17,    268,    0.0,    2.9,   0.00,   0.00, 1027.6,   74.8, -999.0
30-01-2022, 00:21:27,    268,    0.0,    2.9,   0.00,   0.00, 1027.6,   74.7, -999.0
30-01-2022, 00:21:37,    268,    0.0,    2.9,   0.00,   0.00, 1027.7,   74.6, -999.0
30-01-2022, 00:21:47,    268,    0.0,    2.9,   0.00,   0.00, 1027.6,   74.6, -999.0
30-01-2022, 00:21:57,    268,    0.0,    3.0,   0.00,   0.00, 1027.6,   74.7, -999.0
30-01-2022, 00:22:07,    268,    0.0,    2.8,   0.00,   0.00, 1027.6,   74.7, -999.0
30-01-2022, 00:22:17,    268,    0.0,    3.0,   0.00,   0.00, 1027.6,   74.6, -999.0
30-01-2022, 00:22:27,    267,    0.0,    3.0,   0.00,   0.00, 1027.6,   74.7, -999.0
30-01-2022, 00:22:37,    268,    0.0,    2.9,   0.00,   0.00, 1027.6,   74.7, -999.0
30-01-2022, 00:22:46,    268,    0.0,    2.9,   0.00,   0.00, 1027.6,   74.7, -999.0
30-01-2022, 00:22:57,    268,    0.0,    3.0,   0.00,   0.00, 1027.6,   74.8, -999.0
30-01-2022, 00:23:07,    268,    0.0,    3.0,   0.00,   0.00, 1027.6,   74.7, -999.0
30-01-2022, 00:23:16,    268,    0.0,    2.9,   0.00,   0.00, 1027.6,   74.8, -999.0
30-01-2022, 00:23:26,    268,    0.0,    3.0,   0.00,   0.00, 1027.6,   74.8, -999.0
30-01-2022, 00:23:37,    268,    0.0,    3.0,   0.00,   0.00, 1027.6,   74.8, -999.0
30-01-2022, 00:23:46,    268,    0.0,    3.0,   0.00,   0.00, 1027.6,   74.8, -999.0
30-01-2022, 00:23:56,    268,    0.0,    2.9,   0.00,   0.00, 1027.6,   74.9, -999.0
30-01-2022, 00:24:06,    268,    0.0,    2.9,   0.00,   0.00, 1027.6,   74.9, -999.0
30-01-2022, 00:24:16,    268,    0.0,    2.9,   0.00,   0.00, 1027.6,   74.9, -999.0
30-01-2022, 00:24:26,    268,    0.4,    3.0,   0.00,   0.00, 1027.6,   75.2, -999.0
30-01-2022, 00:24:36,    268,    0.8,    3.0,   0.00,   0.00, 1027.8,   75.4, -999.0
30-01-2022, 00:24:46,    268,    0.1,    3.0,   0.00,   0.00, 1027.7,   75.2, -999.0
30-01-2022, 00:24:56,    268,    0.1,    3.0,   0.00,   0.00, 1027.7,   75.3, -999.0
30-01-2022, 00:25:06,    268,    0.0,    3.0,   0.00,   0.00, 1027.6,   75.1, -999.0
30-01-2022, 00:25:16,    268,    0.0,    3.0,   0.00,   0.00, 1027.6,   75.2, -999.0
30-01-2022, 00:25:26,    268,    0.3,    2.9,   0.00,   0.00, 1027.6,   75.2, -999.0
30-01-2022, 00:25:36,    268,    0.5,    3.0,   0.00,   0.00, 1027.7,   75.5, -999.0
30-01-2022, 00:25:46,    267,    0.3,    3.0,   0.00,   0.00, 1027.8,   75.5, -999.0
30-01-2022, 00:25:55,    267,    0.1,    3.0,   0.00,   0.00, 1027.6,   75.4, -999.0
30-01-2022, 00:26:06,    268,    0.2,    3.0,   0.00,   0.00, 1027.7,   75.4, -999.0
30-01-2022, 00:26:16,    272,    0.6,    3.0,   0.00,   0.00, 1027.8,   75.5, -999.0
30-01-2022, 00:26:25,    244,    0.3,    3.1,   0.00,   0.00, 1027.7,   75.6, -999.0
30-01-2022, 00:26:35,    254,    0.3,    3.0,   0.00,   0.00, 1027.7,   75.5, -999.0
30-01-2022, 00:26:46,    257,    0.2,    3.0,   0.00,   0.00, 1027.7,   75.5, -999.0
30-01-2022, 00:26:55,    280,    0.8,    3.0,   0.00,   0.00, 1027.7,   75.5, -999.0
30-01-2022, 00:27:05,    276,    1.1,    3.0,   0.00,   0.00, 1027.7,   75.6, -999.0
30-01-2022, 00:27:15,    280,    0.4,    3.0,   0.00,   0.00, 1027.7,   75.4, -999.0
30-01-2022, 00:27:25,    280,    0.4,    3.0,   0.00,   0.00, 1027.6,   75.6, -999.0
30-01-2022, 00:27:35,    279,    0.0,    2.8,   0.00,   0.00, 1027.5,   75.2, -999.0
30-01-2022, 00:27:45,    249,    0.4,    3.0,   0.00,   0.00, 1027.6,   75.5, -999.0
30-01-2022, 00:27:55,    256,    0.0,    2.9,   0.00,   0.00, 1027.5,   75.3, -999.0
30-01-2022, 00:28:05,    256,    0.0,    2.9,   0.00,   0.00, 1027.5,   75.3, -999.0
30-01-2022, 00:28:15,    267,    0.1,    2.9,   0.00,   0.00, 1027.5,   75.4, -999.0
30-01-2022, 00:28:25,    266,    0.1,    2.9,   0.00,   0.00, 1027.5,   75.4, -999.0
30-01-2022, 00:28:35,    266,    0.1,    3.0,   0.00,   0.00, 1027.5,   75.3, -999.0
30-01-2022, 00:28:45,    266,    0.3,    3.0,   0.00,   0.00, 1027.5,   75.5, -999.0
30-01-2022, 00:28:55,    281,    0.1,    3.0,   0.00,   0.00, 1027.5,   75.4, -999.0
30-01-2022, 00:29:04,    280,    1.0,    2.9,   0.00,   0.00, 1027.6,   75.7, -999.0
30-01-2022, 00:29:15,    306,    0.3,    3.0,   0.00,   0.00, 1027.6,   75.7, -999.0
30-01-2022, 00:29:25,    298,    1.4,    3.0,   0.00,   0.00, 1027.6,   75.8, -999.0
30-01-2022, 00:29:34,    262,    0.7,    3.1,   0.00,   0.00, 1027.6,   75.8, -999.0
30-01-2022, 00:29:45,    264,    0.6,    2.9,   0.00,   0.00, 1027.6,   75.5, -999.0
30-01-2022, 00:29:55,    265,    1.8,    3.0,   0.00,   0.00, 1027.6,   75.6, -999.0
30-01-2022, 00:30:04,    270,    1.2,    3.0,   0.00,   0.00, 1027.7,   75.6, -999.0
30-01-2022, 00:30:14,    282,    1.7,    3.0,   0.00,   0.00, 1027.7,   75.6, -999.0
30-01-2022, 00:30:25,    282,    0.3,    3.0,   0.00,   0.00, 1027.6,   75.5, -999.0
30-01-2022, 00:30:34,    264,    0.1,    2.9,   0.00,   0.00, 1027.6,   75.4, -999.0
30-01-2022, 00:30:44,    273,    1.4,    3.0,   0.00,   0.00, 1027.7,   75.6, -999.0
30-01-2022, 00:30:54,    273,    1.6,    3.0,   0.00,   0.00, 1027.7,   75.5, -999.0
30-01-2022, 00:31:04,    274,    0.6,    3.0,   0.00,   0.00, 1027.7,   75.5, -999.0
30-01-2022, 00:31:14,    273,    0.1,    2.9,   0.00,   0.00, 1027.6,   75.4, -999.0
30-01-2022, 00:31:24,    273,    0.0,    2.8,   0.00,   0.00, 1027.5,   75.1, -999.0
30-01-2022, 00:31:34,    273,    0.0,    2.8,   0.00,   0.00, 1027.5,   75.2, -999.0
30-01-2022, 00:31:44,    273,    0.0,    2.9,   0.00,   0.00, 1027.5,   74.9, -999.0
30-01-2022, 00:31:54,    273,    0.0,    2.8,   0.00,   0.00, 1027.5,   75.1, -999.0
30-01-2022, 00:32:04,    274,    0.2,    2.9,   0.00,   0.00, 1027.7,   75.2, -999.0
30-01-2022, 00:32:14,    273,    0.3,    2.9,   0.00,   0.00, 1027.7,   75.5, -999.0
30-01-2022, 00:32:24,    273,    0.1,    2.9,   0.00,   0.00, 1027.7,   75.2, -999.0
30-01-2022, 00:32:34,    273,    0.0,    2.8,   0.00,   0.00, 1027.6,   75.1, -999.0
30-01-2022, 00:32:43,    274,    0.3,    2.9,   0.00,   0.00, 1027.7,   75.3, -999.0
30-01-2022, 00:32:54,    281,    0.1,    2.9,   0.00,   0.00, 1027.7,   75.2, -999.0
30-01-2022, 00:33:04,    282,    0.0,    2.9,   0.00,   0.00, 1027.6,   75.0, -999.0
30-01-2022, 00:33:13,    276,    0.9,    3.0,   0.00,   0.00, 1027.7,   75.5, -999.0
30-01-2022, 00:33:23,    284,    0.5,    2.9,   0.00,   0.00, 1027.7,   75.6, -999.0
30-01-2022, 00:33:34,    283,    0.2,    2.9,   0.00,   0.00, 1027.7,   75.4, -999.0
30-01-2022, 00:33:43,    281,    0.0,    2.8,   0.00,   0.00, 1027.6,   75.1, -999.0
30-01-2022, 00:33:53,    283,    0.0,    2.9,   0.00,   0.00, 1027.6,   75.1, -999.0
30-01-2022, 00:34:03,    284,    0.0,    2.8,   0.00,   0.00, 1027.6,   75.1, -999.0
30-01-2022, 00:34:13,    284,    0.0,    2.8,   0.00,   0.00, 1027.6,   75.1, -999.0
30-01-2022, 00:34:23,    283,    0.1,    2.9,   0.00,   0.00, 1027.7,   75.4, -999.0
30-01-2022, 00:34:33,    283,    0.2,    2.9,   0.00,   0.00, 1027.7,   75.4, -999.0
30-01-2022, 00:34:43,    283,    0.1,    2.8,   0.00,   0.00, 1027.7,   75.4, -999.0
30-01-2022, 00:34:53,    283,    0.0,    2.8,   0.00,   0.00, 1027.6,   75.2, -999.0
30-01-2022, 00:35:03,    283,    0.0,    2.8,   0.00,   0.00, 1027.6,   75.2, -999.0
30-01-2022, 00:35:13,    283,    0.0,    2.8,   0.00,   0.00, 1027.6,   75.3, -999.0
30-01-2022, 00:35:23,    283,    0.0,    2.9,   0.00,   0.00, 1027.6,   75.3, -999.0
30-01-2022, 00:35:33,    283,    0.0,    2.8,   0.00,   0.00, 1027.6,   75.3, -999.0
30-01-2022, 00:35:43,    283,    0.0,    2.8,   0.00,   0.00, 1027.6,   75.2, -999.0
30-01-2022, 00:35:52,    283,    0.0,    2.8,   0.00,   0.00, 1027.6,   75.2, -999.0
30-01-2022, 00:36:03,    283,    0.0,    2.8,   0.00,   0.00, 1027.6,   75.1, -999.0
30-01-2022, 00:36:13,    283,    0.0,    2.8,   0.00,   0.00, 1027.6,   75.1, -999.0
30-01-2022, 00:36:22,    283,    0.0,    2.8,   0.00,   0.00, 1027.6,   75.1, -999.0
30-01-2022, 00:36:33,    283,    0.0,    2.8,   0.00,   0.00, 1027.6,   75.1, -999.0
30-01-2022, 00:36:43,    283,    0.0,    2.8,   0.00,   0.00, 1027.6,   75.1, -999.0
30-01-2022, 00:36:52,    283,    0.0,    2.8,   0.00,   0.00, 1027.6,   75.2, -999.0
30-01-2022, 00:37:02,    283,    0.0,    2.8,   0.00,   0.00, 1027.7,   75.2, -999.0
30-01-2022, 00:37:12,    283,    0.0,    2.8,   0.00,   0.00, 1027.7,   75.1, -999.0
30-01-2022, 00:37:22,    283,    0.0,    2.8,   0.00,   0.00, 1027.6,   75.2, -999.0
30-01-2022, 00:37:32,    283,    0.0,    2.8,   0.00,   0.00, 1027.6,   75.2, -999.0
30-01-2022, 00:37:42,    283,    0.0,    2.8,   0.00,   0.00, 1027.6,   75.2, -999.0
30-01-2022, 00:37:52,    283,    0.0,    2.9,   0.00,   0.00, 1027.6,   75.3, -999.0
30-01-2022, 00:38:02,    283,    0.0,    2.8,   0.00,   0.00, 1027.6,   75.2, -999.0
30-01-2022, 00:38:12,    283,    0.0,    2.8,   0.00,   0.00, 1027.6,   75.2, -999.0
30-01-2022, 00:38:22,    283,    0.0,    2.8,   0.00,   0.00, 1027.7,   75.2, -999.0
30-01-2022, 00:38:32,    283,    0.0,    2.8,   0.00,   0.00, 1027.6,   75.2, -999.0
30-01-2022, 00:38:42,    283,    0.0,    2.9,   0.00,   0.00, 1027.7,   75.2, -999.0
30-01-2022, 00:38:52,    283,    0.0,    2.6,   0.00,   0.00, 1027.6,   75.2, -999.0
30-01-2022, 00:39:02,    283,    0.0,    2.8,   0.00,   0.00, 1027.7,   75.1, -999.0
30-01-2022, 00:39:12,    283,    0.0,    2.7,   0.00,   0.00, 1027.7,   75.2, -999.0
30-01-2022, 00:39:22,    283,    0.0,    2.8,   0.00,   0.00, 1027.6,   75.2, -999.0
30-01-2022, 00:39:31,    283,    0.0,    2.8,   0.00,   0.00, 1027.6,   75.2, -999.0
30-01-2022, 00:39:42,    283,    0.0,    2.8,   0.00,   0.00, 1027.6,   75.3, -999.0
30-01-2022, 00:39:52,    284,    0.0,    2.8,   0.00,   0.00, 1027.6,   75.2, -999.0
30-01-2022, 00:40:01,    283,    0.1,    2.8,   0.00,   0.00, 1027.7,   75.3, -999.0
30-01-2022, 00:40:11,    283,    0.0,    2.7,   0.00,   0.00, 1027.6,   75.1, -999.0
30-01-2022, 00:40:22,    284,    0.2,    2.9,   0.00,   0.00, 1027.8,   75.6, -999.0
30-01-2022, 00:40:31,    283,    0.2,    2.9,   0.00,   0.00, 1027.8,   75.7, -999.0
30-01-2022, 00:40:41,    283,    0.0,    2.8,   0.00,   0.00, 1027.6,   75.2, -999.0
30-01-2022, 00:40:51,    283,    0.0,    2.7,   0.00,   0.00, 1027.6,   75.3, -999.0
30-01-2022, 00:41:01,    283,    0.0,    2.8,   0.00,   0.00, 1027.6,   75.3, -999.0
30-01-2022, 00:41:11,    283,    0.0,    2.8,   0.00,   0.00, 1027.6,   75.4, -999.0
30-01-2022, 00:41:21,    283,    0.0,    2.7,   0.00,   0.00, 1027.6,   75.3, -999.0
30-01-2022, 00:41:31,    283,    0.0,    2.8,   0.00,   0.00, 1027.6,   75.3, -999.0
30-01-2022, 00:41:41,    283,    0.0,    2.8,   0.00,   0.00, 1027.7,   75.3, -999.0
30-01-2022, 00:41:51,    283,    0.0,    2.8,   0.00,   0.00, 1027.6,   75.3, -999.0
30-01-2022, 00:42:01,    283,    0.0,    2.7,   0.00,   0.00, 1027.6,   75.3, -999.0
30-01-2022, 00:42:11,    283,    0.0,    2.9,   0.00,   0.00, 1027.6,   75.2, -999.0
30-01-2022, 00:42:21,    283,    0.0,    2.8,   0.00,   0.00, 1027.6,   75.3, -999.0
30-01-2022, 00:42:31,    283,    0.0,    2.8,   0.00,   0.00, 1027.6,   75.2, -999.0
30-01-2022, 00:42:40,    283,    0.0,    2.8,   0.00,   0.00, 1027.6,   75.3, -999.0
30-01-2022, 00:42:51,    283,    0.0,    2.8,   0.00,   0.00, 1027.6,   75.3, -999.0
30-01-2022, 00:43:01,    283,    0.0,    2.8,   0.00,   0.00, 1027.6,   75.3, -999.0
30-01-2022, 00:43:10,    283,    0.0,    2.7,   0.00,   0.00, 1027.6,   75.3, -999.0
30-01-2022, 00:43:20,    283,    0.0,    2.7,   0.00,   0.00, 1027.6,   75.3, -999.0
30-01-2022, 00:43:31,    283,    0.0,    2.7,   0.00,   0.00, 1027.6,   75.4, -999.0
30-01-2022, 00:43:40,    283,    0.0,    2.8,   0.00,   0.00, 1027.6,   75.3, -999.0
30-01-2022, 00:43:50,    283,    0.0,    2.7,   0.00,   0.00, 1027.6,   75.3, -999.0
30-01-2022, 00:44:00,    283,    0.0,    2.7,   0.00,   0.00, 1027.7,   75.3, -999.0
30-01-2022, 00:44:10,    283,    0.0,    2.7,   0.00,   0.00, 1027.6,   75.3, -999.0
30-01-2022, 00:44:20,    283,    0.0,    2.7,   0.00,   0.00, 1027.6,   75.4, -999.0
30-01-2022, 00:44:30,    283,    0.0,    2.7,   0.00,   0.00, 1027.6,   75.3, -999.0
30-01-2022, 00:44:40,    283,    0.0,    2.7,   0.00,   0.00, 1027.6,   75.3, -999.0
30-01-2022, 00:44:50,    283,    0.0,    2.6,   0.00,   0.00, 1027.6,   75.4, -999.0
30-01-2022, 00:45:00,    283,    0.0,    2.7,   0.00,   0.00, 1027.6,   75.4, -999.0
30-01-2022, 00:45:10,    283,    0.0,    2.8,   0.00,   0.00, 1027.6,   75.4, -999.0
30-01-2022, 00:45:20,    283,    0.0,    2.7,   0.00,   0.00, 1027.6,   75.5, -999.0
30-01-2022, 00:45:30,    283,    0.0,    2.7,   0.00,   0.00, 1027.6,   75.5, -999.0
30-01-2022, 00:45:40,    283,    0.0,    2.7,   0.00,   0.00, 1027.6,   75.4, -999.0
30-01-2022, 00:45:50,    283,    0.0,    2.7,   0.00,   0.00, 1027.6,   75.6, -999.0
30-01-2022, 00:46:00,    283,    0.0,    2.7,   0.00,   0.00, 1027.6,   75.5, -999.0
30-01-2022, 00:46:10,    283,    0.0,    2.7,   0.00,   0.00, 1027.6,   75.4, -999.0
30-01-2022, 00:46:19,    283,    0.0,    2.8,   0.00,   0.00, 1027.6,   75.5, -999.0
30-01-2022, 00:46:30,    283,    0.0,    2.7,   0.00,   0.00, 1027.6,   75.5, -999.0
30-01-2022, 00:46:40,    283,    0.0,    2.6,   0.00,   0.00, 1027.6,   75.4, -999.0